Regional Weather Roundup
Issued by NWS

Home | Current Version | Previous Version | Graphics & Text | Print | Product List | Glossary On
Versions: 1 2 3 4 5 6 7 8 9 10 11 12 13 14 15 16 17 18 19 20 21 22 23 24 25 26 27 28 29 30 31 32 33 34 35 36 37 38 39 40 41 42 43 44 45 46 47 48 49 50
000
ASUS45 KBOU 212007
RWRCO

WEATHER ROUNDUP FOR COLORADO
NATIONAL WEATHER SERVICE DENVER/BOULDER CO
200 PM MDT THU AUG 21 2014

NOTE: "FAIR" INDICATES FEW OR NO CLOUDS BELOW 12000 FEET WITH NO
SIGNIFICANT WEATHER AND/OR OBSTRUCTIONS TO VISIBILITY.

COZ001>005-013-030-031-212100-
...NORTHWEST COLORADO...

CITY           SKY/WX    TMP DP  RH WIND       PRES   REMARKS
CRAIG          CLOUDY    74  46  36 W10G18    30.19F
HAYDEN         CLOUDY    72  43  35 W9        30.22S
MEEKER         CLOUDY    73  44  35 SW6       30.21S
MOUNT WERNER   NOT AVBL
STEAMBOAT SPGS CLOUDY    70  44  39 W6        30.24S
WALDEN         PTSUNNY   68  37  32 SW16      30.31S
$$

COZ006>008-011-212100-
...WEST CENTRAL VALLEYS...

CITY           SKY/WX    TMP DP  RH WIND       PRES   REMARKS
GRAND JUNCTION CLOUDY    76  45  33 NW6       30.12F
MONTROSE       PTSUNNY   81  40  23 VRB6      30.18F
EAGLE          PTSUNNY   73  37  27 W13       30.23F
RIFLE          CLOUDY    77  39  25 W15       30.16S
DELTA          PTSUNNY   84  39  20 S7        30.14F HAZE
NUCLA          PTSUNNY   79  34  19 W9        30.23S
$$

COZ017>023-064>068-212100-
...SOUTHWEST COLORADO...

CITY           SKY/WX    TMP DP  RH WIND       PRES   REMARKS
DURANGO        PTSUNNY   81  35  19 SW8       30.22F
CORTEZ         MOSUNNY   81  35  19 W12       30.19S
PAGOSA SPRINGS PTSUNNY   76  27  16 SW6       30.29F
TELLURIDE      CLOUDY    66  34  30 W3        30.39S
WOLF CREEK PAS NOT AVBL
$$

COZ009-010-012-014-032>034-037-058>063-212100-
...CENTRAL COLORADO...

CITY           SKY/WX    TMP DP  RH WIND       PRES   REMARKS
ASPEN          PTSUNNY   72  40  31 N10G18    30.28S
BUENA VISTA    PTSUNNY   76  32  19 SE10G18   30.26F
COPPER MTN     PTSUNNY   54  36  50 W16G22    30.58R
BERTHOUD PASS  CLOUDY    46  45  93 NW12G18   30.62R
COTTONWOOD PAS PTSUNNY   72  30  21 S5        30.42S
GUNNISON       MOSUNNY   73  37  27 SW9G20    30.30F
KREMMLING      PTSUNNY   73  36  25 W10       30.26F
LEADVILLE      CLOUDY    61  30  31 NW9       30.41R
SALIDA         PTSUNNY   80  27  14 W13G18    30.30F
SUNLIGHT       CLOUDY    57  43  58 SW3       30.53R
WILKERSON PASS NOT AVBL
$$

COZ069>075-212100-
...SAN LUIS VALLEY/SANGRE DE CRISTO MOUNTAINS...

CITY           SKY/WX    TMP DP  RH WIND       PRES   REMARKS
ALAMOSA        SUNNY     76  35  22 VRB6      30.26F
LA VETA PASS   NOT AVBL
SAGUACHE       PTSUNNY   73  36  25 W7        30.29S
$$

COZ035-036-038>040-212100-
...NORTHERN COLORADO FRONT RANGE...

CITY           SKY/WX    TMP DP  RH WIND       PRES   REMARKS
DENVER INTL AP PTSUNNY   82  44  26 CALM      30.09F
DMNS CITY PARK   N/A     85  40  20 S3G9      30.08S
AURORA         MOSUNNY   82  44  26 NE7       30.12F
FRONT RANGE AP NOT AVBL
ERIE MUNI ARPT MOSUNNY   86  41  20 SE7       30.07S
BOULDER MUN AP MOSUNNY   82  43  24 E7        30.07S
CENTENNIAL     MOSUNNY   81  40  23 W5        30.13S
BROOMFIELD     CLOUDY    70  66  88 S12G18    30.01F
FORT COLLINS   MOSUNNY   84  48  28 SE10G17   30.06S
LONGMONT       MOSUNNY   85  46  26 E7        30.08S
$$

COZ041-046-047-076>085-087-088-212100-
...PIKES PEAK/PALMER DIVIDE AND SOUTHERN FOOTHILLS...

CITY           SKY/WX    TMP DP  RH WIND       PRES   REMARKS
COLO. SPRINGS  MOSUNNY   81  42  25 E7        30.16F
A. F. ACADEMY  MOSUNNY   80  45  29 SE16      30.17S
ELLICOTT       MOSUNNY   81  46  29 SW5       30.15S
FALCON         SUNNY     78  44  30 SE10G16   30.22S
FORT CARSON    NOT AVBL
LIMON          PTSUNNY   82  46  28 E10       30.10S
MONUMENT HILL  CLOUDY    73  41  31 S3        30.21S
TRINIDAD       MOSUNNY   87  43  21 NE6       30.11F
$$

COZ042>045-048>051-090-091-212100-
...NORTHEAST COLORADO...

CITY           SKY/WX    TMP DP  RH WIND       PRES   REMARKS
GREELEY ARPT   SUNNY     86  48  26 S6        30.07S
AKRON          SUNNY     85  43  22 NW10G23   30.06S
BURLINGTON     SUNNY     89  46  22 N12       30.02S
WRAY             N/A     93  46  19 N8G17     29.98S
STERLING       MOSUNNY   90  52  27 NW6       30.01S
HOLYOKE        NOT AVBL
FORT MORGAN    NOT AVBL
$$

COZ086-089-092>099-212100-
...SOUTHEAST COLORADO...

CITY           SKY/WX    TMP DP  RH WIND       PRES   REMARKS
PUEBLO         SUNNY     88  41  19 VRB7      30.03F
LA JUNTA       NOT AVBL
LAMAR          NOT AVBL
SPRINGFIELD    NOT AVBL
$$


USA.gov is the U.S. government's official web portal to all federal, state and local government web resources and services.